Temperature
14 14 14 14 14 14 14 13 13 12 12 11 11 11 11 11 11 11 11 11 11 11 11 11 11 11 11 11 10 10 10 10 10 9 9 9 9 9
14 14 14 14 14 14 13 13 13 13 12 12 11 11 11 11 11 11 11 11 11 10 10 10 10 10 10 10 10 10 10 10 9 9 9 9 9 9
14 14 14 14 13 13 13 13 13 13 13 12 11 11 11 11 11 10 10 10 10 10 10 10 10 10 10 10 10 9 9 9 9 9 9 9 9 8
14 14 14 13 13 13 13 13 13 12 12 12 11 11 11 10 10 10 10 10 10 10 10 10 10 10 9 9 9 9 9 9 9 9 9 9 8 8
14 14 13 13 13 13 13 13 12 12 12 12 11 11 11 10 10 10 10 10 10 10 9 9 9 9 9 9 9 9 9 8 8 8 8 8 8 8
13 13 13 13 13 13 12 12 12 12 12 12 11 11 11 10 10 10 10 10 10 9 9 9 9 9 9 9 8 8 8 8 8 8 8 8 8 8
13 13 13 13 13 12 12 12 12 12 12 11 11 11 11 10 10 10 10 10 9 9 9 9 9 9 9 8 8 8 8 8 8 8 8 7 7 7
13 13 13 12 12 12 12 12 12 12 12 11 11 11 11 11 10 10 10 10 9 9 9 9 9 8 8 8 8 8 8 8 7 7 7 7 7 7
13 13 12 12 12 12 12 12 12 11 11 11 11 11 11 11 10 10 10 10 9 9 9 9 8 8 8 8 8 8 7 7 7 7 7 7 7 7
13 12 12 12 12 12 12 12 11 11 11 11 11 11 10 10 10 10 9 9 9 9 9 8 8 8 8 8 8 7 7 7 7 7 6 6 6 6
12 12 12 12 12 12 11 11 11 11 11 10 10 10 10 10 9 9 9 9 9 9 8 8 8 8 8 8 7 7 7 7 7 6 6 6 6 6
12 12 12 12 12 11 11 11 11 11 11 10 10 10 10 10 9 9 9 9 9 8 8 8 8 7 7 7 7 7 7 7 6 6 6 6 6 6
12 12 12 11 11 11 11 11 11 10 10 10 10 10 10 10 9 9 9 9 8 8 8 8 7 7 7 7 7 7 6 6 6 6 6 5 5 5
12 12 11 11 11 11 11 10 10 10 10 10 10 10 9 9 9 9 9 8 8 8 7 7 7 7 7 6 6 6 6 6 6 6 5 5 5 5
11 11 11 11 11 10 10 10 10 10 9 9 9 9 9 9 9 8 8 8 8 7 7 7 7 6 6 6 6 6 6 6 5 5 5 5 5 5
11 11 11 10 10 10 10 10 9 9 9 9 9 9 9 8 8 8 8 8 8 8 7 7 7 6 6 6 6 6 5 5 5 5 5 5 4 4
11 11 10 10 10 10 10 9 9 9 9 9 9 9 8 8 8 8 8 7 7 7 7 7 6 6 6 6 6 5 5 5 5 4 4 4 4 4
11 10 10 10 10 10 9 9 9 9 9 9 9 8 8 8 8 8 7 7 7 7 7 7 6 6 5 5 5 5 5 5 4 4 4 4 4 4
10 10 10 10 9 9 9 9 9 9 9 9 8 8 8 8 8 7 7 7 7 7 6 6 6 6 5 5 5 5 5 4 4 4 4 3 4 4
10 9 9 9 9 9 9 9 9 9 9 8 8 8 8 8 7 7 7 7 7 6 6 6 6 5 5 5 5 4 4 4 4 4 3 3 3 3
9 9 9 9 9 9 9 9 9 9 8 8 8 8 8 7 7 7 7 6 6 6 6 6 6 5 4 4 4 4 4 4 3 3 3 3 3 3
9 9 9 9 9 9 8 8 8 8 8 8 8 8 7 7 7 7 6 6 6 6 6 5 5 5 4 4 4 4 4 4 3 3 3 2 2 2
9 9 9 9 9 8 8 8 8 8 8 8 8 7 7 7 7 6 6 6 6 6 5 5 5 4 4 4 4 4 3 3 3 3 3 3 2 2
Wind_Speed
2 2 2 1 2 2 3 4 4 2 1 1 0 0 2 4 4 5 6 6 7 7 7 8 8 8 8 8 8 8 8 8 8 8 8 8 8 8
2 3 2 1 1 2 3 2 2 3 2 1 1 1 3 3 4 5 5 6 6 6 6 6 7 7 7 7 7 7 7 7 7 6 7 7 7 7
2 3 2 2 2 2 2 2 2 3 3 1 0 1 2 3 4 4 5 5 5 5 5 5 5 5 6 6 7 7 7 6 6 6 6 6 6 6
3 3 2 2 2 2 2 2 2 2 4 3 1 1 1 2 3 3 3 3 4 3 3 3 4 4 4 5 5 5 5 5 5 5 5 5 5 5
3 3 3 4 3 2 2 3 2 3 3 4 2 1 1 1 2 1 2 2 2 2 3 2 2 3 3 3 3 4 4 4 4 5 5 5 5 5
2 3 3 4 4 4 3 3 4 4 4 4 3 1 1 1 2 2 1 1 1 1 2 2 2 2 2 2 2 3 3 3 3 3 3 4 4 4
2 2 3 4 5 5 4 4 5 4 4 4 3 2 1 2 2 1 1 0 1 1 1 1 1 1 0 1 2 2 2 2 1 1 2 2 2 3
2 1 2 2 4 5 6 7 7 6 5 4 3 3 3 2 2 2 2 1 1 1 1 1 0 1 1 2 2 2 2 1 1 1 1 2 3 3
3 3 2 2 3 3 4 5 5 6 8 7 5 4 4 4 4 3 2 3 2 1 2 0 1 1 3 3 3 3 2 2 2 2 2 3 3 3
3 3 4 3 3 4 4 4 2 2 5 5 5 5 5 5 6 5 4 3 1 1 2 1 1 1 2 2 3 4 4 3 3 3 3 3 4 4
2 3 4 4 5 7 6 4 3 1 2 5 5 5 6 7 7 4 3 3 1 1 0 1 1 1 2 2 3 4 5 5 4 4 4 4 4 4
2 2 4 5 6 7 6 5 4 2 2 3 3 2 3 5 7 6 5 3 2 2 2 2 1 1 1 2 3 3 3 4 4 4 4 4 4 3
3 2 3 6 7 7 7 5 6 4 3 3 2 1 1 2 3 4 5 4 4 3 3 3 2 1 1 2 2 3 3 3 4 4 5 5 5 3
4 3 4 6 7 7 6 6 7 6 3 3 2 2 2 2 2 3 4 5 4 4 4 5 3 3 2 1 2 2 3 4 4 4 5 5 5 6
4 5 5 6 6 5 6 7 6 4 3 3 3 3 3 2 2 2 2 2 1 1 2 4 3 3 3 3 3 2 2 2 4 4 4 5 5 5
3 4 5 5 3 4 4 4 4 4 5 4 4 3 2 2 2 2 2 1 0 2 2 2 4 4 3 3 3 3 3 2 2 3 4 5 6 6
4 2 1 2 2 2 2 2 3 3 4 3 3 3 3 3 2 2 2 2 2 2 2 2 1 2 4 3 3 4 4 3 4 2 2 4 5 7
5 3 4 4 5 5 5 4 4 4 5 4 4 4 4 4 3 2 2 3 3 3 3 2 0 1 2 2 5 5 4 4 4 3 2 4 6 6
4 5 5 6 6 5 5 5 5 5 4 5 5 5 5 4 4 4 4 3 4 4 4 3 2 2 2 5 4 5 5 4 3 3 3 4 6 6
5 5 6 6 6 6 6 6 5 4 4 5 5 5 5 5 5 5 5 5 5 4 3 3 4 5 6 6 4 4 6 5 4 4 4 4 5 7
6 6 5 5 6 6 6 6 6 6 6 6 6 6 6 5 5 6 5 6 5 4 5 6 6 5 2 1 2 4 4 6 7 4 3 3 4 3
6 6 6 6 6 6 6 6 6 6 6 6 6 6 6 6 6 7 6 5 5 6 6 4 2 2 2 4 6 6 5 3 5 7 7 5 3 3
7 6 6 6 6 6 6 6 7 7 7 7 6 6 6 6 6 6 6 6 5 5 4 3 2 2 3 4 5 5 5 4 3 3 4 8 10 11
Wind_Direction
148 139 130 152 145 157 155 160 155 162 232 252 275 309 137 126 124 117 109 104 96 85 79 78 78 80 79 79 76 71 66 63 59 57 59 59 56 54
142 132 125 133 145 137 151 151 142 151 168 210 217 196 153 128 125 121 113 106 103 95 86 83 83 81 83 84 83 78 72 67 64 61 58 56 53 50
138 141 146 144 136 136 136 125 120 125 136 161 35 113 124 126 117 119 123 116 117 114 106 102 98 94 90 90 89 84 78 69 62 61 57 53 49 46
164 145 158 156 138 139 139 133 130 127 134 139 109 97 117 149 143 130 128 132 133 130 129 121 120 116 112 107 100 94 85 74 68 62 56 50 46 42
168 163 170 154 153 152 147 140 135 124 111 129 130 92 80 109 96 95 100 82 120 126 126 113 113 127 130 129 122 113 99 83 72 62 54 46 40 36
165 170 170 165 170 167 156 150 136 121 114 121 124 115 101 89 104 108 69 33 33 88 112 111 106 123 139 154 151 139 126 109 87 68 56 45 34 26
152 167 168 165 163 162 157 156 144 135 129 129 137 117 116 128 167 167 144 87 3 14 76 32 76 72 74 209 197 188 172 158 131 62 37 25 14 4
160 170 158 151 145 147 145 151 151 151 156 152 160 168 190 182 159 151 138 125 273 295 126 334 79 262 260 232 211 190 187 199 227 298 333 341 339 335
173 170 168 152 130 135 130 132 145 156 159 163 165 190 189 191 162 150 155 157 195 237 126 265 333 277 273 262 234 224 228 230 250 270 298 316 319 316
174 170 167 169 157 146 134 126 134 161 177 169 178 189 183 176 174 175 172 150 105 44 129 186 274 272 294 288 246 232 235 238 253 260 275 295 303 307
185 175 171 173 160 145 141 143 139 154 140 159 162 163 163 162 153 129 124 119 180 269 142 162 250 285 308 294 280 253 247 252 257 258 267 285 293 298
169 181 172 165 157 150 153 155 161 187 144 121 113 120 143 153 159 163 168 160 165 232 220 163 187 115 313 304 300 284 268 262 261 261 271 284 286 292
176 193 198 175 165 162 161 168 177 166 159 149 137 116 105 126 155 164 168 169 175 215 202 160 167 160 184 276 303 284 266 264 264 272 276 277 278 268
187 201 198 179 174 169 172 173 158 141 135 139 148 180 196 209 197 173 173 175 182 197 188 167 169 179 174 223 269 292 282 271 259 268 276 281 278 273
190 189 186 178 175 178 181 173 159 151 152 162 191 213 218 207 158 138 139 143 152 242 197 190 180 176 178 201 226 239 262 270 257 262 270 263 257 262
183 175 167 167 168 173 174 175 173 178 180 194 204 208 187 167 175 174 169 165 211 290 301 236 205 184 201 220 218 241 232 248 266 250 256 269 269 261
158 136 145 159 179 193 196 194 189 184 197 200 191 188 188 188 198 186 173 167 196 243 280 307 284 209 209 202 233 245 246 253 250 243 250 270 269 266
152 178 198 203 205 208 209 211 209 209 209 201 197 198 199 202 204 197 188 191 212 232 240 243 248 3 340 292 231 234 246 251 254 240 232 256 274 277
182 204 209 212 215 215 213 212 217 217 206 201 206 208 205 204 201 205 208 213 226 233 233 214 195 184 236 269 272 233 229 246 251 254 245 241 258 269
213 216 217 217 216 217 217 218 218 211 207 210 213 211 206 204 206 211 212 217 226 234 238 225 216 213 222 240 255 264 237 227 232 250 259 256 265 286
220 225 224 220 217 218 219 218 216 215 214 212 215 213 210 208 215 218 218 220 221 226 232 241 240 227 216 174 265 274 269 246 238 238 245 254 277 288
222 225 225 222 218 218 219 217 217 219 216 216 217 214 211 210 214 214 215 216 221 226 237 246 220 181 196 223 243 261 275 278 272 263 258 240 219 239
226 226 226 222 221 221 219 218 220 223 220 217 217 214 210 213 216 215 216 217 216 218 223 232 229 217 225 227 240 255 265 273 278 288 280 275 259 262
Height
1549 1549 1549 1549 1549 1549 1550 1550 1550 1549 1550 1550 1551 1551 1551 1551 1551 1550 1550 1549 1549 1548 1548 1547 1546 1546 1545 1545 1544 1544 1543 1543 1542 1542 1541 1540 1539 1539
1548 1548 1548 1548 1548 1548 1548 1548 1549 1549 1548 1549 1549 1550 1550 1550 1550 1550 1550 1549 1549 1549 1548 1547 1546 1546 1545 1545 1544 1544 1543 1543 1542 1542 1541 1540 1539 1539
1546 1546 1546 1547 1547 1547 1547 1547 1547 1548 1547 1548 1548 1548 1549 1549 1549 1549 1549 1549 1549 1548 1548 1547 1547 1546 1545 1545 1544 1544 1543 1543 1542 1541 1541 1540 1539 1538
1544 1545 1545 1545 1545 1546 1546 1546 1546 1546 1546 1546 1547 1547 1548 1549 1549 1549 1549 1549 1548 1548 1548 1547 1547 1546 1545 1545 1544 1544 1543 1543 1542 1541 1540 1539 1539 1538
1543 1543 1543 1544 1544 1544 1544 1545 1545 1545 1545 1545 1546 1547 1547 1548 1548 1548 1548 1548 1548 1548 1547 1547 1546 1546 1545 1545 1544 1543 1543 1542 1541 1540 1539 1539 1538 1537
1541 1541 1542 1542 1542 1542 1543 1543 1543 1544 1544 1545 1545 1545 1546 1546 1547 1547 1547 1547 1547 1547 1546 1546 1545 1545 1544 1544 1543 1543 1542 1541 1541 1540 1539 1538 1537 1536
1539 1539 1540 1540 1541 1541 1541 1541 1542 1542 1543 1543 1543 1544 1544 1544 1545 1546 1546 1546 1546 1546 1545 1545 1544 1544 1543 1543 1542 1542 1541 1540 1540 1539 1538 1537 1536 1535
1536 1537 1538 1538 1539 1539 1540 1540 1541 1541 1541 1542 1542 1542 1542 1543 1544 1544 1544 1544 1544 1545 1544 1544 1543 1542 1542 1541 1541 1540 1540 1539 1538 1537 1536 1535 1534 1533
1534 1535 1535 1536 1537 1537 1538 1538 1539 1540 1540 1541 1540 1541 1541 1542 1542 1542 1542 1543 1543 1543 1543 1542 1541 1541 1541 1540 1539 1539 1538 1537 1537 1536 1535 1533 1532 1531
1532 1532 1533 1533 1534 1535 1535 1536 1537 1537 1538 1539 1539 1539 1540 1541 1541 1541 1541 1541 1541 1541 1541 1540 1539 1539 1539 1538 1537 1537 1536 1535 1534 1533 1532 1531 1530 1529
1529 1530 1531 1531 1532 1533 1533 1533 1534 1535 1536 1537 1537 1538 1538 1539 1539 1539 1539 1538 1538 1538 1538 1538 1537 1536 1536 1536 1535 1535 1534 1533 1532 1531 1530 1529 1527 1526
1527 1528 1528 1529 1529 1530 1531 1531 1532 1533 1534 1534 1535 1535 1536 1536 1536 1536 1536 1536 1536 1535 1535 1535 1535 1534 1534 1533 1533 1532 1531 1530 1529 1528 1527 1526 1524 1523
1524 1525 1525 1526 1527 1528 1528 1529 1530 1531 1531 1532 1532 1532 1533 1533 1533 1533 1534 1534 1533 1533 1533 1533 1532 1532 1532 1531 1530 1529 1528 1527 1526 1525 1524 1523 1521 1520
1521 1522 1523 1523 1524 1525 1526 1526 1527 1528 1529 1529 1529 1529 1529 1530 1530 1530 1531 1531 1531 1531 1531 1530 1530 1529 1529 1528 1527 1526 1525 1524 1523 1522 1521 1519 1518 1517
1518 1519 1520 1521 1521 1522 1523 1524 1524 1525 1525 1525 1525 1525 1526 1527 1527 1527 1527 1527 1527 1527 1527 1527 1526 1526 1525 1525 1524 1523 1522 1521 1520 1518 1517 1516 1514 1513
1515 1516 1517 1517 1518 1518 1519 1520 1520 1521 1521 1522 1522 1522 1523 1523 1523 1523 1523 1523 1523 1523 1523 1523 1523 1522 1521 1521 1520 1519 1518 1517 1516 1515 1513 1512 1510 1508
1511 1511 1512 1513 1513 1514 1515 1515 1516 1517 1517 1518 1518 1518 1518 1519 1519 1519 1519 1519 1519 1518 1518 1519 1518 1518 1517 1517 1515 1514 1514 1513 1512 1511 1509 1507 1505 1504
1507 1507 1507 1508 1508 1509 1510 1511 1511 1512 1513 1513 1514 1514 1514 1514 1514 1515 1515 1515 1514 1514 1514 1514 1514 1513 1513 1512 1512 1510 1509 1508 1507 1506 1504 1502 1500 1499
1502 1502 1502 1503 1504 1505 1505 1506 1507 1508 1508 1509 1509 1509 1509 1509 1510 1510 1510 1510 1510 1510 1510 1510 1509 1509 1508 1506 1506 1506 1505 1503 1502 1501 1500 1498 1495 1494
1497 1497 1498 1498 1499 1500 1501 1501 1502 1502 1503 1503 1504 1504 1504 1504 1504 1504 1505 1505 1505 1504 1504 1504 1504 1503 1503 1502 1501 1500 1500 1499 1497 1496 1494 1492 1491 1490
1492 1492 1493 1493 1494 1495 1495 1496 1497 1497 1497 1498 1498 1498 1498 1498 1498 1499 1499 1499 1499 1499 1498 1498 1498 1499 1499 1498 1496 1494 1495 1494 1493 1491 1489 1487 1485 1483
1487 1487 1487 1488 1488 1489 1489 1490 1491 1491 1491 1492 1492 1492 1492 1492 1493 1493 1493 1493 1493 1493 1493 1493 1494 1493 1493 1492 1490 1489 1489 1489 1488 1487 1485 1483 1481 1478
1481 1482 1482 1482 1483 1483 1483 1484 1484 1484 1485 1485 1486 1486 1486 1486 1487 1487 1487 1487 1487 1487 1487 1487 1487 1487 1487 1486 1485 1484 1483 1483 1482 1481 1480 1478 1477 1475